This demonstration page uses our WeatherBlox Daily Observations layout. Learn more.

Left ArrowRight Arrow

39.08367, -84.50855

Hourly Observations for May 6, 2016

Temp ( °F °C ) Dew Point ( °F °C ) Humidity (%) Winds ( mph kmh ) Pressure ( in mb ) Visibility ( mi km ) Precip ( " mm )
12:53 am 00:53 Clear 48 8.9 47 8.3 96 96 Calm 29.91 1013 10 16 0.00 0.00
1:53 am 01:53 Clear 51 10.6 45 7.2 80 80 VRB 6 9 29.91 1013 10 16 0.00 0.00
2:53 am 02:53 Clear 50 10 45 7.2 83 83 N 8 13 29.91 1013 10 16 0.00 0.00
3:53 am 03:53 Clear 50 10 46 7.8 86 86 NE 5 7 29.91 1013 10 16 0.00 0.00
4:53 am 04:53 Clear 46 7.8 44 6.7 93 93 Calm 29.92 1013 10 16 0.00 0.00
5:53 am 05:53 Clear 45 7.2 44 6.7 97 97 Calm 29.93 1014 7 11 0.00 0.00
6:21 am 06:21 Clear with Mist and Fog 42 5.6 42 5.6 100 100 Calm 29.94 1014 2 3 0.00 0.00
6:32 am 06:32 Clear with Mist and Fog 43 6 43 6 100 100 Calm 29.94 1014 1 1 0.00 0.00
6:42 am 06:42 Sunny with Mist and Fog 43 6 43 6 100 100 Calm 29.94 1014 2 3 0.00 0.00
6:50 am 06:50 Mostly Sunny 43 6 43 6 100 100 Calm 29.94 1014 10 16 0.00 0.00
6:53 am 06:53 Mostly Sunny 43 6.1 43 6.1 100 100 Calm 29.94 1014 10 16 0.00 0.00
7:53 am 07:53 Mostly Cloudy 50 10 47 8.3 89 89 Calm 29.96 1015 10 16 0.00 0.00
8:53 am 08:53 Mostly Sunny 54 12.2 45 7.2 72 72 N 5 7 29.98 1015 10 16 0.00 0.00
9:53 am 09:53 Sunny 59 15 44 6.7 58 58 N 7 11 29.98 1015 10 16 0.00 0.00
10:53 am 10:53 Sunny 63 17.2 44 6.7 50 50 VRB 7 11 29.98 1015 10 16 0.00 0.00
11:53 am 11:53 Mostly Sunny 65 18.3 43 6.1 45 45 N 14 22 29.98 1015 10 16 0.00 0.00
12:53 pm 12:53 Partly Cloudy 68 20 44 6.7 42 42 N 13 20 29.97 1015 10 16 0.00 0.00
1:53 pm 13:53 Mostly Sunny 68 20 43 6.1 40 40 N 12 19 29.94 1014 10 16 0.00 0.00
2:53 pm 14:53 Mostly Cloudy 69 20.6 43 6.1 39 39 N 9 15 29.93 1013 10 16 0.00 0.00
3:53 pm 15:53 Mostly Cloudy 70 21.1 46 7.8 42 42 WNW 13 20 29.91 1013 10 16 0.00 0.00
4:53 pm 16:53 Partly Cloudy 69 20.6 43 6.1 39 39 NNW 12 19 29.89 1012 10 16 0.00 0.00
5:53 pm 17:53 Mostly Sunny 71 21.7 43 6.1 36 36 NW 9 15 29.88 1012 10 16 0.00 0.00
6:53 pm 18:53 Mostly Sunny 69 20.6 40 4.4 35 35 NNW 15 24 29.87 1012 10 16 0.00 0.00
7:53 pm 19:53 Sunny 67 19.4 38 3.3 35 35 NW 8 13 29.88 1012 10 16 0.00 0.00
8:53 pm 20:53 Clear 65 18.3 37 2.8 36 36 NNW 7 11 29.88 1012 10 16 0.00 0.00
9:53 pm 21:53 Clear 53 11.7 46 7.8 77 77 Calm 29.88 1012 10 16 0.00 0.00
10:53 pm 22:53 Clear 52 11.1 46 7.8 80 80 Calm 29.89 1012 10 16 0.00 0.00
11:53 pm 23:53 Clear 49 9.4 46 7.8 90 90 Calm 29.89 1012 10 16 0.00 0.00

Powered by AerisWeather